CZ-6A DEB, 54582

Orbit data source: Space-Track

CZ-6A DEB, 54582 is space debris in SSO originally from a launch on Fri, 11 Nov 2022 UTC launched from the Taiyaun Space Center, China (TSC). Debris objects in space refer to the collection of defunct objects orbiting the Earth. Examples of debris include non-operational satellites, rocket bodies, and fragments generated from explosions, collisions, or faulty payload assembly.

Loading next visibility...
Identifier
54582, 2022-151MJ
Orbit
SSO
Country
Flag of CNCN / PRC
Related business
Manufacturer
SAST
Mission
Spacecraft
Bus & Motor
Unknown
Mass
Unknown
Launch date (UTC)
2022-11-11 (3 years ago)
Launch vehicle
Unknown
Launch site
Taiyaun Space Center, China (TSC)
Object type
Payload
Rocket body
Debris
Shape & HBR
Unknown shape, 0.1 m
Radar Cross Section
Small (<0.1 m²)

Expand to show TLE details & history
Last TLE update: 21 hours ago

TLE from 21 hours ago
0 CZ-6A DEB
1 54582U 22151MJ  25350.18321273  .00472188  00000-0  72091-2 0  9998
2 54582  98.6000  74.7625 0023821   0.8728 359.2558 15.52484579165066
Epoch: 2025-12-16T04:23Z
TLE epoch observation values (Epoch: 2025-12-16T04:23:49.579Z)
Latitude
-0.00008°
Longitude
-76.26515°
Altitude
396.4 km
Speed
7.682 km/s
True Right ascension
04h 59m 03s
True Declination
0° 00' 00"
Sunlit
Object was in full shadow at epoch
Visualization orbit readout
Latitude
Unknown
Longitude
Unknown
Altitude
Unknown
Speed
Unknown
Apparent Right ascension
Unknown
Apparent Declination
Unknown
Sunlit
N/A
Visualization observer readout
Local Sidereal Time
23:56:17
Azimuth
Unknown
Elevation
Unknown
Doppler factor
Unknown
Orbital elements
Apogee altitude
422.615 km
Perigee altitude
390.291 km
Semi-major axis
6,784.59 km
Eccentricity
0.00238
Inclination
98.6°
RAAN
74.7625°
Arg. of periapsis
0.8728°
True anomaly
359.25224°
Mean anomaly
359.2558°
Eccentric anomaly
359.25402°
Mean motion
3.88381 °/min
Orbital period
92.69 mins
BSTAR
0.0072091
Loading maneuver chart data...
Computing Atmospheric mass density...

Documentation

Showing up to 5 results
|